| time (UTC) | temp F | wind direction | speed MPH | gust MPH | rain 1hr in | rain 24hr in | rain mn in | humidity % | barometer mb |
| 20260902040139 | 68 | 164 | 3.0 | 6.0 | 0.00 | 0.00 | 0.00 | 51 | 1009.9 |
| 20260902035138 | 66 | 126 | 2.0 | 4.0 | 0.00 | 0.00 | 0.00 | 54 | 1009.9 |
| 20260902034141 | 66 | 123 | 4.0 | 5.0 | 0.00 | 0.00 | 0.00 | 54 | 1009.7 |
| 20260902033149 | 68 | 121 | 2.0 | 3.0 | 0.00 | 0.00 | 0.00 | 50 | 1009.7 |
| 20260902032207 | 67 | 121 | 3.0 | 5.0 | 0.00 | 0.00 | 0.00 | 51 | 1009.5 |
| 20260902031214 | 67 | 121 | 4.0 | 7.0 | 0.00 | 0.00 | 0.00 | 51 | 1009.5 |
| 20260902030201 | 70 | 15 | 3.0 | 4.0 | 0.00 | 0.00 | 0.00 | 44 | 1009.5 |
| 20260902025138 | 72 | 11 | 0.0 | 1.0 | 0.00 | 0.09 | 0.00 | 39 | 1009.3 |
| 20260902024143 | 73 | 11 | 0.0 | 3.0 | 0.00 | 0.09 | 0.00 | 38 | 1009.0 |
| 20260902023208 | 74 | 9 | 0.0 | 6.0 | 0.00 | 0.09 | 0.00 | 36 | 1009.0 |
| 20260902022215 | 75 | 11 | 3.0 | 8.0 | 0.00 | 0.09 | 0.00 | 34 | 1008.8 |
| 20260902021200 | 75 | 5 | 4.0 | 7.0 | 0.00 | 0.09 | 0.00 | 30 | 1008.8 |
| 20260902020203 | 76 | 20 | 4.0 | 5.0 | 0.00 | 0.09 | 0.00 | 29 | 1008.8 |
| 20260902015139 | 76 | 21 | 3.0 | 5.0 | 0.00 | 0.09 | 0.00 | 30 | 1008.8 |
| 20260902014144 | 77 | 21 | 2.0 | 5.0 | 0.00 | 0.09 | 0.00 | 30 | 1008.8 |
| 20260902013145 | 78 | 22 | 3.0 | 5.0 | 0.00 | 0.09 | 0.00 | 29 | 1008.8 |
| 20260902012207 | 79 | 28 | 4.0 | 7.0 | 0.00 | 0.09 | 0.00 | 27 | 1008.7 |
| 20260902011152 | 80 | 29 | 5.0 | 9.0 | 0.00 | 0.09 | 0.00 | 27 | 1008.7 |
| 20260902010153 | 81 | 49 | 3.0 | 12.0 | 0.00 | 0.09 | 0.00 | 27 | 1008.7 |
| 20260902005154 | 81 | 34 | 3.0 | 7.0 | 0.00 | 0.09 | 0.00 | 26 | 1008.6 |
| 20260902004157 | 82 | 45 | 5.0 | 9.0 | 0.00 | 0.09 | 0.00 | 25 | 1008.7 |
| 20260902003142 | 82 | 38 | 5.0 | 17.0 | 0.00 | 0.09 | 0.00 | 24 | 1008.7 |
| 20260902002150 | 83 | 34 | 6.0 | 11.0 | 0.00 | 0.09 | 0.00 | 22 | 1008.6 |
| 20260902001213 | 83 | 25 | 8.0 | 11.0 | 0.00 | 0.09 | 0.00 | 22 | 1008.5 |
| 20260902000138 | 83 | 19 | 8.0 | 12.0 | 0.00 | 0.09 | 0.00 | 22 | 1008.5 |
| 20260901235205 | 85 | 19 | 5.0 | 9.0 | 0.00 | 0.09 | 0.00 | 20 | 1008.4 |
| 20260901234146 | 85 | 69 | 6.0 | 14.0 | 0.00 | 0.09 | 0.00 | 21 | 1008.4 |
| 20260901233147 | 85 | 16 | 6.0 | 12.0 | 0.00 | 0.09 | 0.00 | 20 | 1008.4 |
| 20260901232152 | 84 | 32 | 4.0 | 6.0 | 0.00 | 0.09 | 0.00 | 22 | 1008.6 |
| 20260901231151 | 83 | 21 | 4.0 | 8.0 | 0.00 | 0.09 | 0.00 | 21 | 1008.5 |
| 20260901230157 | 84 | 5 | 6.0 | 10.0 | 0.00 | 0.09 | 0.00 | 20 | 1008.5 |
| 20260901225145 | 86 | 15 | 3.0 | 11.0 | 0.00 | 0.09 | 0.00 | 20 | 1008.4 |
| 20260901224146 | 87 | 49 | 7.0 | 12.0 | 0.00 | 0.09 | 0.00 | 20 | 1008.5 |
| 20260901223210 | 86 | 57 | 6.0 | 11.0 | 0.00 | 0.09 | 0.00 | 20 | 1008.5 |
| 20260901222139 | 85 | 19 | 5.0 | 8.0 | 0.00 | 0.09 | 0.00 | 20 | 1008.6 |
| 20260901221215 | 84 | 35 | 4.0 | 9.0 | 0.00 | 0.09 | 0.00 | 21 | 1008.7 |
| 20260901220138 | 85 | 77 | 0.0 | 4.0 | 0.00 | 0.09 | 0.00 | 23 | 1008.7 |
| 20260901215145 | 86 | 76 | 3.0 | 11.0 | 0.00 | 0.09 | 0.00 | 20 | 1008.7 |
| 20260901214146 | 87 | 76 | 5.0 | 11.0 | 0.00 | 0.09 | 0.00 | 20 | 1008.8 |
| 20260901213140 | 87 | 40 | 3.0 | 6.0 | 0.00 | 0.09 | 0.00 | 19 | 1008.8 |
| 20260901212141 | 85 | 63 | 6.0 | 10.0 | 0.00 | 0.09 | 0.00 | 21 | 1009.0 |
| 20260901211204 | 84 | 5 | 5.0 | 9.0 | 0.00 | 0.09 | 0.00 | 23 | 1009.3 |
| 20260901210149 | 83 | 60 | 5.0 | 10.0 | 0.00 | 0.09 | 0.00 | 24 | 1009.3 |
| 20260901205154 | 82 | 40 | 3.0 | 9.0 | 0.00 | 0.09 | 0.00 | 25 | 1009.4 |
| 20260901204156 | 81 | 20 | 7.0 | 11.0 | 0.00 | 0.09 | 0.00 | 25 | 1009.5 |
| 20260901203159 | 81 | 5 | 6.0 | 11.0 | 0.00 | 0.09 | 0.00 | 25 | 1009.5 |
| 20260901202144 | 81 | 355 | 6.0 | 11.0 | 0.00 | 0.09 | 0.00 | 24 | 1009.7 |
| 20260901201150 | 81 | 342 | 5.0 | 10.0 | 0.00 | 0.09 | 0.00 | 22 | 1009.8 |
| 20260901200151 | 83 | 76 | 6.0 | 10.0 | 0.00 | 0.09 | 0.00 | 23 | 1009.8 |
| 20260901195213 | 83 | 360 | 4.0 | 6.0 | 0.00 | 0.09 | 0.00 | 23 | 1009.9 |
| 20260901194152 | 83 | 284 | 3.0 | 10.0 | 0.00 | 0.09 | 0.00 | 23 | 1010.0 |
| 20260901193154 | 83 | 180 | 1.0 | 6.0 | 0.00 | 0.09 | 0.00 | 22 | 1010.0 |
| 20260901192138 | 85 | 84 | 4.0 | 11.0 | 0.00 | 0.09 | 0.00 | 22 | 1010.2 |
| 20260901191146 | 84 | 219 | 4.0 | 15.0 | 0.00 | 0.09 | 0.00 | 21 | 1010.5 |
| 20260901190143 | 84 | 219 | 6.0 | 11.0 | 0.00 | 0.09 | 0.00 | 21 | 1010.5 |
| 20260901185147 | 84 | 199 | 6.0 | 12.0 | 0.00 | 0.09 | 0.00 | 22 | 1010.6 |
| 20260901184135 | 83 | 292 | 5.0 | 11.0 | 0.00 | 0.09 | 0.00 | 24 | 1010.6 |
| 20260901183139 | 82 | 196 | 5.0 | 12.0 | 0.00 | 0.09 | 0.00 | 25 | 1010.6 |
| 20260901182139 | 81 | 200 | 3.0 | 12.0 | 0.00 | 0.09 | 0.00 | 23 | 1010.8 |
| 20260901181148 | 81 | 242 | 1.0 | 12.0 | 0.00 | 0.09 | 0.00 | 27 | 1011.2 |
| 20260901180154 | 80 | 158 | 4.0 | 9.0 | 0.00 | 0.09 | 0.00 | 27 | 1011.2 |
| 20260901175152 | 79 | 223 | 2.0 | 9.0 | 0.00 | 0.09 | 0.00 | 28 | 1011.4 |
| 20260901174157 | 79 | 188 | 4.0 | 9.0 | 0.00 | 0.09 | 0.00 | 32 | 1011.7 |
| 20260901173140 | 79 | 169 | 3.0 | 8.0 | 0.00 | 0.09 | 0.00 | 29 | 1011.7 |
| 20260901172206 | 78 | 155 | 5.0 | 10.0 | 0.00 | 0.09 | 0.00 | 33 | 1011.8 |
| 20260901171146 | 77 | 192 | 6.0 | 9.0 | 0.00 | 0.09 | 0.00 | 32 | 1011.8 |
| 20260901170155 | 76 | 152 | 0.0 | 6.0 | 0.00 | 0.09 | 0.00 | 38 | 1011.8 |
| 20260901165155 | 74 | 172 | 2.0 | 10.0 | 0.00 | 0.09 | 0.00 | 41 | 1011.9 |
| 20260901164157 | 73 | 183 | 8.0 | 13.0 | 0.00 | 0.09 | 0.00 | 41 | 1011.8 |
| 20260901163142 | 70 | 194 | 6.0 | 13.0 | 0.00 | 0.09 | 0.00 | 45 | 1011.8 |
| 20260901162159 | 69 | 213 | 7.0 | 11.0 | 0.00 | 0.09 | 0.00 | 48 | 1011.8 |
| 20260901161143 | 69 | 218 | 8.0 | 13.0 | 0.00 | 0.09 | 0.00 | 48 | 1012.0 |
| 20260901160147 | 69 | 207 | 5.0 | 13.0 | 0.00 | 0.09 | 0.00 | 48 | 1012.0 |
| 20260901155145 | 69 | 194 | 6.0 | 10.0 | 0.00 | 0.09 | 0.00 | 47 | 1012.0 |
| 20260901154154 | 69 | 207 | 5.0 | 10.0 | 0.00 | 0.09 | 0.00 | 49 | 1011.9 |
| 20260901153157 | 68 | 196 | 6.0 | 9.0 | 0.00 | 0.09 | 0.00 | 49 | 1011.9 |
| 20260901152142 | 68 | 184 | 7.0 | 12.0 | 0.00 | 0.09 | 0.00 | 51 | 1011.9 |
| 20260901151159 | 67 | 207 | 7.0 | 11.0 | 0.00 | 0.09 | 0.00 | 50 | 1011.8 |
| 20260901150137 | 67 | 198 | 6.0 | 12.0 | 0.00 | 0.09 | 0.00 | 52 | 1011.8 |
| 20260901145200 | 66 | 222 | 6.0 | 10.0 | 0.00 | 0.09 | 0.00 | 54 | 1011.6 |
| 20260901144137 | 66 | 194 | 3.0 | 8.0 | 0.00 | 0.09 | 0.00 | 56 | 1011.6 |
| 20260901143205 | 66 | 192 | 8.0 | 10.0 | 0.00 | 0.09 | 0.00 | 57 | 1011.6 |
| 20260901142151 | 65 | 184 | 5.0 | 11.0 | 0.00 | 0.09 | 0.00 | 57 | 1011.5 |
| 20260901141213 | 65 | 169 | 8.0 | 14.0 | 0.00 | 0.09 | 0.00 | 59 | 1011.3 |
| 20260901140139 | 65 | 200 | 9.0 | 11.0 | 0.00 | 0.09 | 0.00 | 59 | 1011.3 |
| 20260901135151 | 65 | 210 | 6.0 | 9.0 | 0.00 | 0.09 | 0.00 | 58 | 1011.3 |
| 20260901134215 | 64 | 195 | 5.0 | 10.0 | 0.00 | 0.09 | 0.00 | 59 | 1011.2 |
| 20260901133215 | 64 | 198 | 8.0 | 13.0 | 0.00 | 0.09 | 0.00 | 60 | 1011.2 |
| 20260901132155 | 64 | 192 | 8.0 | 12.0 | 0.00 | 0.09 | 0.00 | 61 | 1010.9 |
| 20260901131158 | 64 | 190 | 7.0 | 18.0 | 0.00 | 0.09 | 0.00 | 61 | 1010.7 |
| 20260901130143 | 63 | 202 | 8.0 | 16.0 | 0.00 | 0.09 | 0.00 | 64 | 1010.7 |
| 20260901125147 | 62 | 175 | 10.0 | 14.0 | 0.00 | 0.09 | 0.00 | 67 | 1010.5 |
| 20260901124152 | 61 | 197 | 8.0 | 11.0 | 0.00 | 0.09 | 0.00 | 70 | 1010.3 |
| 20260901123142 | 60 | 199 | 6.0 | 9.0 | 0.00 | 0.09 | 0.00 | 74 | 1010.3 |
| 20260901122151 | 59 | 175 | 7.0 | 10.0 | 0.00 | 0.09 | 0.00 | 76 | 1010.2 |
| 20260901121157 | 59 | 168 | 7.0 | 11.0 | 0.00 | 0.09 | 0.00 | 75 | 1010.5 |
| 20260901120141 | 60 | 175 | 7.0 | 10.0 | 0.00 | 0.09 | 0.00 | 74 | 1010.5 |
| 20260901115146 | 60 | 197 | 6.0 | 9.0 | 0.00 | 0.09 | 0.00 | 73 | 1010.6 |
| 20260901114152 | 60 | 200 | 4.0 | 6.0 | 0.00 | 0.09 | 0.00 | 73 | 1010.4 |
| 20260901113153 | 60 | 201 | 2.0 | 5.0 | 0.00 | 0.09 | 0.00 | 73 | 1010.4 |
| 20260901112157 | 60 | 201 | 3.0 | 7.0 | 0.00 | 0.09 | 0.00 | 72 | 1010.5 |
| 20260901111202 | 61 | 200 | 4.0 | 10.0 | 0.00 | 0.09 | 0.00 | 72 | 1010.4 |
| 20260901110144 | 61 | 175 | 8.0 | 12.0 | 0.00 | 0.09 | 0.00 | 72 | 1010.4 |
| 20260901104158 | 60 | 185 | 7.0 | 10.0 | 0.00 | 0.09 | 0.00 | 75 | 1010.7 |
| 20260901103143 | 60 | 150 | 5.0 | 8.0 | 0.00 | 0.09 | 0.00 | 75 | 1010.7 |
| 20260901102202 | 60 | 157 | 4.0 | 7.0 | 0.00 | 0.09 | 0.00 | 76 | 1011.0 |
| 20260901101149 | 59 | 157 | 3.0 | 6.0 | 0.00 | 0.09 | 0.00 | 76 | 1011.2 |
| 20260901100211 | 59 | 159 | 3.0 | 5.0 | 0.00 | 0.09 | 0.00 | 76 | 1011.2 |
| 20260901095154 | 59 | 160 | 4.0 | 7.0 | 0.00 | 0.09 | 0.00 | 77 | 1011.7 |
| 20260901094157 | 59 | 160 | 2.0 | 5.0 | 0.00 | 0.09 | 0.00 | 77 | 1011.5 |
| 20260901093149 | 60 | 160 | 4.0 | 6.0 | 0.00 | 0.09 | 0.00 | 76 | 1011.5 |
| 20260901092152 | 60 | 159 | 4.0 | 6.0 | 0.00 | 0.09 | 0.00 | 76 | 1011.8 |
| 20260901091159 | 60 | 160 | 4.0 | 7.0 | 0.00 | 0.09 | 0.00 | 76 | 1011.8 |
| 20260901090141 | 60 | 162 | 6.0 | 8.0 | 0.00 | 0.09 | 0.00 | 76 | 1011.8 |
| 20260901085144 | 60 | 165 | 4.0 | 6.0 | 0.00 | 0.09 | 0.00 | 77 | 1011.8 |
| 20260901084149 | 60 | 165 | 3.0 | 6.0 | 0.00 | 0.09 | 0.00 | 78 | 1011.9 |
| 20260901083156 | 60 | 165 | 3.0 | 5.0 | 0.00 | 0.09 | 0.00 | 78 | 1011.9 |
| 20260901082144 | 60 | 165 | 3.0 | 4.0 | 0.00 | 0.09 | 0.00 | 79 | 1012.1 |
| 20260901081151 | 59 | 165 | 1.0 | 2.0 | 0.00 | 0.09 | 0.00 | 80 | 1012.3 |
| 20260901080156 | 60 | 165 | 0.0 | 3.0 | 0.00 | 0.09 | 0.00 | 80 | 1012.3 |
| 20260901075200 | 60 | 165 | 0.0 | 4.0 | 0.00 | 0.09 | 0.00 | 80 | 1012.4 |
| 20260901074206 | 60 | 165 | 1.0 | 4.0 | 0.00 | 0.09 | 0.00 | 79 | 1012.5 |
| 20260901073205 | 60 | 165 | 0.0 | 3.0 | 0.00 | 0.09 | 0.00 | 80 | 1012.5 |
| 20260901072146 | 60 | 165 | 1.0 | 5.0 | 0.00 | 0.09 | 0.00 | 80 | 1012.5 |
| 20260901071205 | 60 | 165 | 3.0 | 5.0 | 0.00 | 0.09 | 0.00 | 80 | 1012.4 |
| 20260901070147 | 60 | 165 | 2.0 | 5.0 | 0.00 | 0.09 | 0.00 | 81 | 1012.4 |
| 20260901065154 | 59 | 165 | 3.0 | 4.0 | 0.00 | 0.09 | 0.00 | 83 | 1012.4 |
| 20260901064213 | 59 | 165 | 1.0 | 2.0 | 0.00 | 0.09 | 0.00 | 84 | 1012.4 |
| 20260901063155 | 60 | 165 | 0.0 | 4.0 | 0.00 | 0.09 | 0.00 | 84 | 1012.4 |
| 20260901062220 | 59 | 165 | 0.0 | 3.0 | 0.00 | 0.09 | 0.00 | 85 | 1012.4 |
| 20260901061144 | 59 | 165 | 1.0 | 4.0 | 0.00 | 0.09 | 0.00 | 85 | 1012.5 |
| 20260901060200 | 59 | 165 | 4.0 | 7.0 | 0.00 | 0.09 | 0.00 | 85 | 1012.5 |
| 20260901055153 | 60 | 159 | 4.0 | 7.0 | 0.00 | 0.09 | 0.09 | 84 | 1012.9 |
| 20260901054158 | 60 | 159 | 5.0 | 8.0 | 0.00 | 0.09 | 0.09 | 82 | 1013.0 |
| 20260901053141 | 60 | 165 | 4.0 | 7.0 | 0.00 | 0.09 | 0.09 | 84 | 1013.0 |
| 20260901052146 | 60 | 172 | 2.0 | 6.0 | 0.00 | 0.09 | 0.09 | 83 | 1012.6 |
| 20260901051149 | 60 | 201 | 3.0 | 7.0 | 0.00 | 0.09 | 0.09 | 85 | 1012.5 |
| 20260901050148 | 60 | 200 | 3.0 | 6.0 | 0.00 | 0.09 | 0.09 | 86 | 1012.5 |
| 20260901045157 | 60 | 194 | 4.0 | 6.0 | 0.00 | 0.09 | 0.09 | 86 | 1012.4 |
| 20260901044139 | 60 | 215 | 4.0 | 5.0 | 0.00 | 0.09 | 0.09 | 86 | 1012.4 |
| 20260901043146 | 60 | 242 | 1.0 | 6.0 | 0.00 | 0.09 | 0.09 | 87 | 1012.4 |
| 20260901042147 | 60 | 242 | 2.0 | 4.0 | 0.00 | 0.09 | 0.09 | 87 | 1012.4 |
| 20260901041211 | 60 | 236 | 1.0 | 8.0 | 0.00 | 0.09 | 0.09 | 87 | 1012.6 |